Quesnel,

4:13 AM PDT on May 20, 2018 (GMT -0700)
Quesnel

Weather History for CYQZ - September, 2013

Change the Weather History Date:

Sunday, September 29, 2013

  Actual Average Record
Temperature  
Mean Temperature 48 °F -  
Max Temperature 60 °F 49 °F 71 °F (2006)
Min Temperature 35 °F 31 °F 26 °F (2004)
Degree Days  
Heating Degree Days 18    
Moisture  
Dew Point 39 °F    
Average Humidity 67    
Maximum Humidity 100    
Minimum Humidity 42    
Precipitation  
Precipitation 0.00 in - - ()
Sea Level Pressure  
Sea Level Pressure 29.20 in    
Wind  
Wind Speed 7 mph ()    
Max Wind Speed 17 mph    
Max Gust Speed 24 mph    
Visibility 8.1 miles    
Events Rain , Thunderstorm    
Averages and records for this station are not official NWS values.
T = Trace of Precipitation, MM = Missing Value Source: Averaged Metar Reports

Daily Weather History Graph

Daily Weather History Graph

Search for Another Location

Airport or City:

Astronomy

Sep. 29, 2013 Rise Set
Actual Time 7:08 AM PDT 6:50 PM PDT
Civil Twilight 6:34 AM PDT 7:25 PM PDT
Nautical Twilight 5:53 AM PDT 8:05 PM PDT
Astronomical Twilight 5:12 AM PDT 8:46 PM PDT
Moon 1:18 AM PDT (9/29) 4:22 PM PDT (9/29)
Length of Visible Light 12h 50m
Length of Day
11h 42m
Waning Crescent, 26% of the Moon is Illuminated
Sep 29
Waning Crescent
Oct 4
New
Oct 11
First Quarter
Oct 18
Full
Oct 26
Last Quarter

Hourly Weather History & Observations

Time (PDT) Temp. Windchill Dew Point Humidity Pressure Visibility Wind Dir Wind Speed Gust Speed Precip Events Conditions
12:00 AM 42.8 °F 41.1 °F 41.0 °F 93% 29.17 in 9.0 mi South 3.5 mph - N/A   Mostly Cloudy
1:00 AM 39.2 °F 37.0 °F 39.2 °F 100% 29.17 in 7.0 mi Variable 3.5 mph - N/A   Partly Cloudy
2:00 AM 39.2 °F 35.9 °F 39.2 °F 100% 29.18 in 9.0 mi SSE 4.6 mph - N/A   Clear
3:00 AM 37.4 °F - 37.4 °F 100% 29.18 in 9.0 mi Variable 2.3 mph - N/A   Mostly Cloudy
4:00 AM 35.6 °F - 35.6 °F 100% 29.20 in 8.0 mi Calm Calm - N/A   Mostly Cloudy
5:00 AM 37.4 °F - 37.4 °F 100% 29.21 in 9.0 mi Variable 2.3 mph - N/A   Overcast
6:00 AM 42.8 °F 39.3 °F 37.4 °F 81% 29.21 in 9.0 mi ESE 5.8 mph - N/A   Overcast
7:00 AM 44.6 °F 41.4 °F 37.4 °F 76% 29.22 in 9.0 mi South 5.8 mph - N/A   Mostly Cloudy
8:00 AM 46.4 °F 41.5 °F 37.4 °F 71% 29.23 in 9.0 mi SE 10.4 mph 17.3 mph N/A   Clear
9:00 AM 46.4 °F 41.5 °F 37.4 °F 71% 29.25 in 9.0 mi SSE 10.4 mph - N/A   Mostly Cloudy
10:00 AM 50.0 °F - 39.2 °F 66% 29.25 in 9.0 mi SSE 16.1 mph - N/A   Partly Cloudy
11:00 AM 51.8 °F - 37.4 °F 58% 29.26 in 9.0 mi SE 10.4 mph - N/A   Partly Cloudy
12:00 PM 53.6 °F - 39.2 °F 58% 29.26 in 9.0 mi SSE 9.2 mph - N/A   Mostly Cloudy
1:00 PM 57.2 °F - 39.2 °F 51% 29.26 in 9.0 mi SSE 9.2 mph - N/A   Clear
2:00 PM 59.0 °F - 37.4 °F 45% 29.24 in 9.0 mi South 12.7 mph 21.9 mph N/A   Scattered Clouds
3:00 PM 60.8 °F - 37.4 °F 42% 29.22 in 9.0 mi SE 12.7 mph 20.7 mph N/A   Clear
4:00 PM 60.8 °F - 37.4 °F 42% 29.21 in 9.0 mi SE 11.5 mph 19.6 mph N/A   Overcast
4:31 PM 57.2 °F - 41.0 °F 55% 29.22 in 4.0 mi SE 9.2 mph 17.3 mph N/A Rain Light Rain
4:32 PM 57.2 °F - 41.0 °F 55% 29.22 in 4.0 mi SE 6.9 mph 17.3 mph N/A Rain Heavy Rain
4:34 PM 55.4 °F - 44.6 °F 67% 29.22 in 3.0 mi SSE 4.6 mph 17.3 mph N/A Rain , Thunderstorm Heavy Thunderstorms and Rain
4:35 PM 55.4 °F - 42.8 °F 63% 29.22 in 3.0 mi SSE 4.6 mph 17.3 mph N/A Rain , Thunderstorm Heavy Thunderstorms and Rain
4:36 PM 53.6 °F - 46.4 °F 77% 29.22 in 3.0 mi SSE 4.6 mph 17.3 mph N/A Rain , Thunderstorm Light Thunderstorms and Rain
4:53 PM 55.4 °F - 39.2 °F 54% 29.22 in 9.0 mi Variable 17.3 mph - N/A Rain , Thunderstorm Light Thunderstorms and Rain
4:54 PM 55.4 °F - 41.0 °F 58% 29.22 in 9.0 mi Variable 13.8 mph 21.9 mph N/A Thunderstorm Thunderstorm
5:00 PM 57.2 °F - 41.0 °F 55% 29.22 in 9.0 mi SE 6.9 mph 21.9 mph N/A Thunderstorm Thunderstorm
5:04 PM 55.4 °F - 41.0 °F 58% 29.22 in 9.0 mi SE 10.4 mph 18.4 mph N/A   Mostly Cloudy
6:00 PM 55.4 °F - 37.4 °F 51% 29.22 in 9.0 mi SSE 9.2 mph - N/A   Mostly Cloudy
7:00 PM 55.4 °F - 39.2 °F 54% 29.21 in 9.0 mi SE 6.9 mph - N/A   Mostly Cloudy
8:00 PM 51.8 °F - 39.2 °F 62% 29.16 in 9.0 mi South 16.1 mph - N/A   Mostly Cloudy
9:00 PM 51.8 °F - 39.2 °F 62% 29.13 in 9.0 mi SSE 11.5 mph 19.6 mph N/A   Scattered Clouds
10:00 PM 53.6 °F - 37.4 °F 54% 29.11 in 9.0 mi SSE 13.8 mph 24.2 mph N/A   Overcast
11:00 PM 53.6 °F - 37.4 °F 54% 29.09 in 9.0 mi SE 12.7 mph - N/A   Overcast
11:53 PM 51.8 °F - 41.0 °F 67% 29.09 in 9.0 mi SE 10.4 mph 17.3 mph N/A Rain Light Rain